TimeEDT,TemperatureF,Dew PointF,Humidity,Sea Level PressureIn,VisibilityMPH,Wind Direction,Wind SpeedMPH,Gust SpeedMPH,PrecipitationIn,Events,Conditions,WindDirDegrees,DateUTC
12:53 AM,73.9,73.0,97,30.01,10.0,Calm,Calm,-,N/A,,Clear,0,2012-10-06 04:53:00
1:53 AM,75.0,73.0,94,30.01,10.0,Calm,Calm,-,N/A,,Partly Cloudy,0,2012-10-06 05:53:00
2:53 AM,75.0,73.9,96,29.98,10.0,Calm,Calm,-,N/A,,Clear,0,2012-10-06 06:53:00
3:53 AM,75.0,73.0,94,29.96,9.0,Calm,Calm,-,N/A,,Clear,0,2012-10-06 07:53:00
4:53 AM,75.0,73.9,96,29.95,9.0,North,5.8,-,N/A,,Scattered Clouds,360,2012-10-06 08:53:00
5:03 AM,75.0,73.9,96,29.96,10.0,North,6.9,-,N/A,,Mostly Cloudy,350,2012-10-06 09:03:00
5:53 AM,75.0,73.9,96,29.97,3.0,NNW,8.1,-,N/A,,Overcast,340,2012-10-06 09:53:00
6:01 AM,75.0,73.9,96,29.98,2.5,North,6.9,-,N/A,,Overcast,10,2012-10-06 10:01:00
6:08 AM,75.0,73.9,96,29.98,7.0,North,6.9,-,N/A,,Overcast,10,2012-10-06 10:08:00
6:35 AM,75.0,73.0,94,29.98,10.0,NE,4.6,-,N/A,,Scattered Clouds,40,2012-10-06 10:35:00
6:53 AM,73.9,73.0,97,29.98,9.0,ENE,3.5,-,N/A,,Scattered Clouds,60,2012-10-06 10:53:00
7:03 AM,73.9,73.0,97,29.98,8.0,ENE,4.6,-,N/A,,Mostly Cloudy,70,2012-10-06 11:03:00
7:53 AM,75.0,73.9,96,29.98,7.0,Calm,Calm,-,N/A,,Scattered Clouds,0,2012-10-06 11:53:00
8:35 AM,75.9,73.9,94,29.99,9.0,Calm,Calm,-,N/A,,Mostly Cloudy,0,2012-10-06 12:35:00
8:53 AM,77.0,75.0,94,29.99,10.0,Calm,Calm,-,N/A,,Overcast,0,2012-10-06 12:53:00
9:17 AM,78.1,75.9,93,30.00,10.0,ESE,3.5,-,N/A,,Scattered Clouds,120,2012-10-06 13:17:00
10:53 AM,82.0,73.9,76,29.99,10.0,Calm,Calm,-,N/A,,Clear,0,2012-10-06 14:53:00
11:53 AM,84.0,73.9,72,29.99,10.0,NNW,3.5,-,N/A,,Partly Cloudy,340,2012-10-06 15:53:00
12:53 PM,84.9,70.0,61,29.97,10.0,Calm,Calm,-,N/A,,Clear,0,2012-10-06 16:53:00
1:53 PM,88.0,70.0,55,29.94,10.0,North,3.5,-,N/A,,Clear,360,2012-10-06 17:53:00
2:53 PM,90.0,71.1,54,29.91,10.0,Variable,4.6,-,N/A,,Partly Cloudy,0,2012-10-06 18:53:00
3:53 PM,84.9,72.0,65,29.90,10.0,NW,6.9,-,N/A,,Clear,310,2012-10-06 19:53:00
4:53 PM,86.0,72.0,63,29.88,10.0,NNW,8.1,-,N/A,,Clear,330,2012-10-06 20:53:00
5:53 PM,84.9,70.0,61,29.90,10.0,North,6.9,-,N/A,,Clear,10,2012-10-06 21:53:00
6:53 PM,81.0,71.1,72,29.91,10.0,ENE,13.8,21.9,N/A,,Mostly Cloudy,70,2012-10-06 22:53:00
7:31 PM,78.1,70.0,76,29.96,10.0,East,17.3,23.0,N/A,,Mostly Cloudy,100,2012-10-06 23:31:00
7:50 PM,75.2,69.8,83,29.97,10.0,East,16.1,29.9,N/A,,Scattered Clouds,100,2012-10-06 23:50:00
7:53 PM,75.9,69.1,79,29.96,10.0,ESE,16.1,-,N/A,,Scattered Clouds,110,2012-10-06 23:53:00
8:53 PM,75.9,69.1,79,29.96,10.0,ESE,6.9,-,N/A,,Partly Cloudy,120,2012-10-07 00:53:00
9:53 PM,75.0,70.0,84,29.97,10.0,SE,3.5,-,N/A,,Partly Cloudy,140,2012-10-07 01:53:00
10:53 PM,73.9,71.1,91,29.97,10.0,NW,6.9,-,N/A,,Mostly Cloudy,310,2012-10-07 02:53:00
11:05 PM,75.0,71.1,87,29.98,10.0,Calm,Calm,-,N/A,,Mostly Cloudy,0,2012-10-07 03:05:00
11:29 PM,75.0,71.1,87,29.97,10.0,Calm,Calm,-,N/A,,Scattered Clouds,0,2012-10-07 03:29:00